Radiation Dose at Monitoring Post of Fukushima Daini Nuclear Power Station
Date,Time,MP-1(microSv/h),MP-2(microSv/h),MP-3(microSv/h),MP-4(microSv/h),MP-5(microSv/h),MP-6(microSv/h),MP-7(microSv/h),Wind Direction,Wind Velocity(m/s),Rain
2020/08/26,00:00,0.184,0.169,0.278,0.264,0.251,0.145,0.087,-,CALM,No
2020/08/26,00:10,0.182,0.169,0.281,0.266,0.250,0.146,0.087,-,CALM,No
2020/08/26,00:20,0.184,0.168,0.279,0.262,0.254,0.145,0.087,-,CALM,No
2020/08/26,00:30,0.184,0.169,0.278,0.265,0.250,0.145,0.088,-,CALM,No
2020/08/26,00:40,0.183,0.167,0.281,0.264,0.252,0.145,0.087,-,CALM,No
2020/08/26,00:50,0.186,0.169,0.278,0.263,0.253,0.145,0.087,-,CALM,No
2020/08/26,01:00,0.184,0.169,0.280,0.266,0.250,0.145,0.088,-,CALM,No
2020/08/26,01:10,0.184,0.168,0.280,0.264,0.254,0.146,0.088,south,0.7,No
2020/08/26,01:20,0.185,0.170,0.280,0.265,0.254,0.144,0.088,south,1.8,No
2020/08/26,01:30,0.184,0.168,0.282,0.266,0.251,0.146,0.088,south,2.1,No
2020/08/26,01:40,0.184,0.169,0.279,0.263,0.254,0.146,0.087,south,1.6,No
2020/08/26,01:50,0.185,0.170,0.280,0.267,0.253,0.145,0.088,south-southeast,1.3,No
2020/08/26,02:00,0.184,0.168,0.280,0.266,0.251,0.145,0.087,south-southeast,1.1,No
2020/08/26,02:10,0.186,0.171,0.278,0.263,0.254,0.146,0.087,south-southeast,0.9,No
2020/08/26,02:20,0.185,0.170,0.283,0.267,0.253,0.145,0.088,southeast,0.7,No
2020/08/26,02:30,0.183,0.170,0.281,0.263,0.252,0.146,0.088,south,0.6,No
2020/08/26,02:40,0.185,0.169,0.280,0.265,0.255,0.146,0.088,-,CALM,No
2020/08/26,02:50,0.184,0.170,0.281,0.267,0.251,0.146,0.088,southwest,0.8,No
2020/08/26,03:00,0.184,0.170,0.278,0.264,0.253,0.147,0.088,-,CALM,No
2020/08/26,03:10,0.185,0.170,0.281,0.267,0.255,0.145,0.088,-,CALM,No
2020/08/26,03:20,0.184,0.169,0.280,0.265,0.250,0.145,0.088,south,0.8,No
2020/08/26,03:30,0.184,0.170,0.279,0.265,0.253,0.146,0.088,south-southeast,0.6,No
2020/08/26,03:40,0.185,0.168,0.282,0.266,0.254,0.145,0.089,-,CALM,No
2020/08/26,03:50,0.183,0.170,0.280,0.264,0.251,0.147,0.088,-,CALM,No
2020/08/26,04:00,0.185,0.168,0.282,0.267,0.253,0.146,0.088,-,CALM,No
2020/08/26,04:10,0.185,0.170,0.280,0.263,0.251,0.145,0.087,-,CALM,No
2020/08/26,04:20,0.183,0.169,0.279,0.265,0.251,0.146,0.088,-,CALM,No
2020/08/26,04:30,0.185,0.168,0.280,0.266,0.255,0.146,0.088,south-southeast,0.6,No
2020/08/26,04:40,0.185,0.169,0.279,0.264,0.251,0.146,0.087,south-southeast,0.6,No
2020/08/26,04:50,0.183,0.168,0.281,0.267,0.253,0.146,0.088,south-southeast,0.8,No
2020/08/26,05:00,0.185,0.169,0.279,0.264,0.255,0.145,0.089,south,1.1,No
2020/08/26,05:10,0.183,0.169,0.281,0.266,0.252,0.146,0.088,south-southwest,0.9,No
2020/08/26,05:20,0.186,0.169,0.283,0.267,0.255,0.146,0.089,south,0.9,No
2020/08/26,05:30,0.184,0.170,0.279,0.265,0.254,0.146,0.088,-,CALM,No
2020/08/26,05:40,0.184,0.170,0.282,0.266,0.251,0.147,0.088,-,CALM,No
2020/08/26,05:50,0.186,0.170,0.280,0.265,0.255,0.146,0.088,west,0.9,No
2020/08/26,06:00,0.185,0.168,0.278,0.266,0.253,0.146,0.087,-,CALM,No
2020/08/26,06:10,0.184,0.169,0.282,0.265,0.251,0.146,0.087,-,CALM,No
2020/08/26,06:20,0.186,0.170,0.279,0.266,0.255,0.146,0.088,-,CALM,No
2020/08/26,06:30,0.183,0.169,0.282,0.266,0.253,0.146,0.089,-,CALM,No
2020/08/26,06:40,0.184,0.170,0.280,0.265,0.251,0.146,0.088,southeast,0.6,No
2020/08/26,06:50,0.187,0.170,0.279,0.263,0.254,0.145,0.088,east-southeast,0.6,No
2020/08/26,07:00,0.184,0.170,0.280,0.266,0.254,0.146,0.088,-,CALM,No
2020/08/26,07:10,0.184,0.170,0.282,0.265,0.252,0.146,0.088,south,0.7,No
2020/08/26,07:20,0.185,0.170,0.279,0.263,0.249,0.146,0.088,east-southeast,1.2,No
2020/08/26,07:30,0.185,0.169,0.278,0.262,0.254,0.145,0.088,southeast,1.0,No
2020/08/26,07:40,0.184,0.169,0.277,0.262,0.255,0.147,0.089,east,1.6,No
2020/08/26,07:50,0.185,0.170,0.279,0.261,0.253,0.147,0.088,east-southeast,1.2,No
2020/08/26,08:00,0.185,0.171,0.280,0.263,0.251,0.145,0.087,east-southeast,1.5,No
2020/08/26,08:10,0.184,0.169,0.280,0.262,0.250,0.145,0.088,southeast,1.8,No
2020/08/26,08:20,0.183,0.168,0.279,0.263,0.250,0.147,0.088,southeast,1.4,No
2020/08/26,08:30,0.182,0.167,0.279,0.263,0.254,0.145,0.087,east,1.8,No
2020/08/26,08:40,0.183,0.169,0.279,0.264,0.254,0.145,0.088,east-southeast,2.7,No
2020/08/26,08:50,0.184,0.171,0.279,0.265,0.253,0.145,0.087,east-southeast,2.7,No
2020/08/26,09:00,0.184,0.169,0.277,0.265,0.252,0.144,0.087,southeast,2.5,No
2020/08/26,09:10,0.184,0.169,0.278,0.265,0.252,0.145,0.088,east-southeast,2.7,No
2020/08/26,09:20,0.184,0.168,0.278,0.264,0.252,0.145,0.087,east-southeast,2.1,No
2020/08/26,09:30,0.183,0.168,0.280,0.266,0.250,0.146,0.087,east-southeast,2.2,No
2020/08/26,09:40,0.183,0.169,0.279,0.264,0.251,0.145,0.087,east-southeast,2.2,No
2020/08/26,09:50,0.184,0.168,0.280,0.265,0.252,0.145,0.087,southeast,2.0,No
2020/08/26,10:00,0.184,0.169,0.278,0.265,0.251,0.145,0.087,southeast,2.2,No
2020/08/26,10:10,0.183,0.169,0.278,0.264,0.251,0.146,0.086,southeast,1.8,No
2020/08/26,10:20,0.183,0.168,0.278,0.265,0.253,0.145,0.088,southeast,1.7,No
2020/08/26,10:30,0.183,0.169,0.279,0.265,0.252,0.145,0.088,southeast,1.9,No
2020/08/26,10:40,0.183,0.169,0.280,0.265,0.253,0.145,0.087,southeast,1.5,No
2020/08/26,10:50,0.182,0.168,0.280,0.264,0.252,0.145,0.087,southeast,1.8,No
2020/08/26,11:00,0.183,0.168,0.280,0.264,0.251,0.145,0.086,southeast,2.2,No
2020/08/26,11:10,0.184,0.169,0.280,0.264,0.251,0.146,0.087,southeast,3.0,No
2020/08/26,11:20,0.185,0.169,0.279,0.266,0.252,0.145,0.087,southeast,3.4,No
2020/08/26,11:30,0.183,0.170,0.279,0.265,0.252,0.146,0.087,south-southeast,4.0,No
2020/08/26,11:40,0.185,0.168,0.279,0.266,0.251,0.146,0.087,south-southeast,4.4,No
2020/08/26,11:50,0.184,0.171,0.281,0.263,0.252,0.144,0.087,south-southeast,4.2,No
2020/08/26,12:00,0.184,0.168,0.279,0.264,0.252,0.145,0.087,south-southeast,4.4,No
2020/08/26,12:10,0.184,0.170,0.279,0.264,0.251,0.144,0.087,south-southeast,5.3,No
2020/08/26,12:20,0.184,0.169,0.279,0.265,0.252,0.143,0.087,south-southeast,5.3,No
2020/08/26,12:30,0.184,0.168,0.281,0.264,0.251,0.144,0.086,south-southeast,5.3,No
2020/08/26,12:40,0.183,0.168,0.280,0.265,0.250,0.144,0.087,south-southeast,5.3,No
2020/08/26,12:50,0.184,0.169,0.279,0.266,0.251,0.145,0.087,south-southeast,5.0,No
2020/08/26,13:00,0.184,0.169,0.282,0.266,0.252,0.145,0.087,south-southeast,4.9,No
2020/08/26,13:10,0.184,0.169,0.280,0.265,0.251,0.144,0.088,south-southeast,4.8,No
2020/08/26,13:20,0.183,0.168,0.279,0.265,0.251,0.143,0.086,south-southeast,5.0,No
2020/08/26,13:30,0.184,0.169,0.279,0.265,0.251,0.145,0.087,south-southeast,4.9,No
2020/08/26,13:40,0.184,0.168,0.279,0.264,0.249,0.144,0.087,south-southeast,4.6,No
2020/08/26,13:50,0.183,0.169,0.280,0.264,0.251,0.144,0.086,south-southeast,5.1,No
2020/08/26,14:00,0.184,0.168,0.280,0.264,0.251,0.144,0.087,south-southeast,4.6,No
2020/08/26,14:10,0.183,0.169,0.279,0.264,0.251,0.145,0.086,south-southeast,5.4,No
2020/08/26,14:20,0.183,0.168,0.279,0.264,0.251,0.144,0.087,south-southeast,5.6,No
2020/08/26,14:30,0.183,0.169,0.279,0.263,0.251,0.145,0.085,south-southeast,5.8,No
2020/08/26,14:40,0.184,0.168,0.279,0.263,0.252,0.144,0.087,south-southeast,5.5,No
2020/08/26,14:50,0.183,0.168,0.278,0.264,0.252,0.144,0.086,south-southeast,5.6,No
2020/08/26,15:00,0.183,0.168,0.278,0.263,0.251,0.145,0.086,south-southeast,5.8,No
2020/08/26,15:10,0.184,0.167,0.279,0.264,0.250,0.144,0.087,south-southeast,6.1,No
2020/08/26,15:20,0.183,0.167,0.280,0.264,0.251,0.145,0.087,south-southeast,5.6,No
2020/08/26,15:30,0.182,0.167,0.278,0.263,0.250,0.145,0.087,south-southeast,4.9,No
2020/08/26,15:40,0.183,0.168,0.278,0.264,0.249,0.145,0.086,south-southeast,4.4,No
2020/08/26,15:50,0.182,0.168,0.277,0.262,0.251,0.145,0.086,south-southeast,4.9,No
2020/08/26,16:00,0.183,0.168,0.277,0.263,0.249,0.146,0.085,south-southeast,4.4,No
2020/08/26,16:10,0.183,0.169,0.277,0.262,0.250,0.145,0.085,south-southeast,4.1,No
2020/08/26,16:20,0.183,0.167,0.277,0.262,0.250,0.145,0.086,south-southeast,5.5,No
2020/08/26,16:30,0.183,0.167,0.280,0.266,0.250,0.145,0.086,south-southeast,4.6,No
2020/08/26,16:40,0.183,0.167,0.282,0.267,0.249,0.144,0.087,south-southeast,4.7,No
2020/08/26,16:50,0.184,0.169,0.281,0.265,0.249,0.144,0.087,south-southeast,4.6,No
2020/08/26,17:00,0.181,0.169,0.279,0.264,0.251,0.144,0.087,south-southeast,4.8,No
2020/08/26,17:10,0.182,0.168,0.277,0.262,0.250,0.144,0.085,south,4.7,No
2020/08/26,17:20,0.185,0.168,0.277,0.266,0.250,0.145,0.085,south-southeast,5.3,No
2020/08/26,17:30,0.185,0.166,0.282,0.267,0.249,0.146,0.087,south-southeast,3.9,No
2020/08/26,17:40,0.184,0.168,0.280,0.265,0.249,0.145,0.087,south-southeast,4.1,No
2020/08/26,17:50,0.181,0.169,0.279,0.262,0.249,0.143,0.085,south,4.3,No
2020/08/26,18:00,0.182,0.169,0.277,0.264,0.251,0.144,0.085,south-southeast,4.7,No
2020/08/26,18:10,0.185,0.167,0.280,0.267,0.255,0.145,0.087,south,4.4,No
2020/08/26,18:20,0.184,0.167,0.282,0.265,0.251,0.145,0.087,south,3.9,No
2020/08/26,18:30,0.182,0.169,0.279,0.262,0.249,0.145,0.086,south,5.3,No
2020/08/26,18:40,0.182,0.168,0.277,0.265,0.250,0.144,0.085,south,5.6,No
2020/08/26,18:50,0.185,0.167,0.282,0.267,0.253,0.144,0.087,south,4.6,No
2020/08/26,19:00,0.184,0.169,0.282,0.264,0.252,0.145,0.087,south,4.7,No
2020/08/26,19:10,0.182,0.169,0.278,0.262,0.249,0.145,0.086,south,4.5,No
2020/08/26,19:20,0.181,0.168,0.278,0.266,0.249,0.144,0.087,south,4.4,No
2020/08/26,19:30,0.184,0.168,0.281,0.264,0.254,0.145,0.088,south-southeast,3.3,No
2020/08/26,19:40,0.184,0.169,0.279,0.263,0.252,0.145,0.086,south-southeast,2.4,No
2020/08/26,19:50,0.182,0.168,0.277,0.265,0.249,0.144,0.085,south-southeast,2.1,No
2020/08/26,20:00,0.184,0.167,0.280,0.266,0.252,0.144,0.086,south,3.6,No
2020/08/26,20:10,0.185,0.169,0.280,0.264,0.253,0.145,0.087,south-southeast,3.4,No
2020/08/26,20:20,0.182,0.169,0.277,0.262,0.250,0.145,0.086,south,3.1,No
2020/08/26,20:30,0.182,0.166,0.279,0.266,0.249,0.144,0.086,south,3.5,No
2020/08/26,20:40,0.184,0.168,0.282,0.265,0.254,0.144,0.087,south-southeast,3.7,No
2020/08/26,20:50,0.184,0.168,0.278,0.262,0.252,0.145,0.086,south,4.1,No
2020/08/26,21:00,0.183,0.167,0.278,0.265,0.248,0.144,0.086,south-southeast,4.0,No
2020/08/26,21:10,0.182,0.170,0.282,0.266,0.252,0.144,0.087,south,4.3,No
2020/08/26,21:20,0.184,0.168,0.279,0.263,0.254,0.144,0.087,south,3.3,No
2020/08/26,21:30,0.184,0.167,0.277,0.267,0.252,0.145,0.087,south,3.5,No
2020/08/26,21:40,0.183,0.170,0.282,0.265,0.250,0.145,0.087,south-southwest,4.3,No
2020/08/26,21:50,0.185,0.168,0.279,0.264,0.254,0.145,0.086,south-southwest,3.2,No
2020/08/26,22:00,0.185,0.168,0.278,0.264,0.252,0.146,0.087,south,3.2,No
2020/08/26,22:10,0.184,0.169,0.282,0.267,0.251,0.145,0.087,south,2.9,No
2020/08/26,22:20,0.184,0.170,0.280,0.266,0.253,0.145,0.088,south,4.1,No
2020/08/26,22:30,0.185,0.168,0.278,0.267,0.253,0.146,0.087,south,4.1,No
2020/08/26,22:40,0.184,0.170,0.284,0.266,0.251,0.146,0.087,south,3.9,No
2020/08/26,22:50,0.185,0.169,0.280,0.264,0.252,0.146,0.088,south,3.7,No
2020/08/26,23:00,0.185,0.168,0.279,0.266,0.254,0.147,0.088,south,2.6,No
2020/08/26,23:10,0.184,0.169,0.282,0.268,0.252,0.146,0.087,south-southwest,0.6,No
2020/08/26,23:20,0.184,0.169,0.280,0.266,0.250,0.145,0.087,south,2.5,No
2020/08/26,23:30,0.185,0.169,0.279,0.265,0.254,0.146,0.088,south,2.1,No
2020/08/26,23:40,0.185,0.169,0.282,0.268,0.250,0.146,0.087,south,3.8,No
2020/08/26,23:50,0.183,0.168,0.280,0.265,0.251,0.145,0.088,south,3.4,No
